Lake Charles, LA

1:33 PM CST on February 21, 2017 (GMT -0600)
Chennault International

Weather History for KCWF - July, 2013

Change the Weather History Date:

Friday, July 5, 2013

  Actual Average Record
Temperature  
Mean Temperature 82 °F -  
Max Temperature 93 °F 88 °F 95 °F (2002)
Min Temperature 70 °F 74 °F 69 °F (2000)
Cooling Degree Days 16    
Growing Degree Days 32 (Base 50)    
Moisture  
Dew Point 68 °F    
Average Humidity 74    
Maximum Humidity 88    
Minimum Humidity 36    
Precipitation  
Precipitation 0.00 in - - ()
Sea Level Pressure  
Sea Level Pressure 29.96 in    
Wind  
Wind Speed 3 mph (ENE)    
Max Wind Speed 15 mph    
Max Gust Speed 23 mph    
Visibility 10 miles    
Events Thunderstorm    
Averages and records for this station are not official NWS values.
T = Trace of Precipitation, MM = Missing Value Source: NWS Daily Summary

Daily Weather History Graph

Daily Weather History Graph

Search for Another Location

Airport or City:

Trip Planner

Search our weather history database for the weather conditions in past years. The results will help you decide how hot, cold, wet, or windy it might be!

Date:

Astronomy

Jul. 05, 2013 Rise Set
Actual Time 6:16 AM CDT 8:17 PM CDT
Civil Twilight 5:49 AM CDT 8:45 PM CDT
Nautical Twilight 5:15 AM CDT 9:18 PM CDT
Astronomical Twilight 4:40 AM CDT 9:53 PM CDT
Moon 4:12 AM CDT (7/5) 6:16 PM CDT (7/5)
Length of Visible Light 14h 56m
Length of Day
14h 01m
Waning Crescent, 6% of the Moon is Illuminated
Jul 5
Waning Crescent
Jul 8
New
Jul 15
First Quarter
Jul 22
Full
Jul 29
Last Quarter

Hourly Weather History & Observations

Time (CDT) Temp. Heat Index Dew Point Humidity Pressure Visibility Wind Dir Wind Speed Gust Speed Precip Events Conditions
12:15 AM 76.1 °F - 66.2 °F 71% 29.97 in 10.0 mi ENE 3.5 mph - N/A   Clear
12:35 AM 75.4 °F - 66.2 °F 73% 29.97 in 10.0 mi Calm Calm - N/A   Clear
12:55 AM 75.9 °F - 66.4 °F 72% 29.98 in 10.0 mi Calm Calm - N/A   Clear
1:15 AM 75.9 °F - 66.6 °F 73% 29.97 in 10.0 mi Calm Calm - N/A   Clear
1:35 AM 76.3 °F - 66.7 °F 72% 29.97 in 10.0 mi Calm Calm - N/A   Clear
1:55 AM 75.7 °F - 66.7 °F 74% 29.97 in 10.0 mi Calm Calm - N/A   Clear
2:15 AM 73.9 °F - 67.1 °F 79% 29.96 in 10.0 mi NNE 3.5 mph - N/A   Clear
2:35 AM 74.3 °F - 67.5 °F 79% 29.96 in 10.0 mi NNE 3.5 mph - N/A   Clear
2:55 AM 73.4 °F - 67.1 °F 81% 29.96 in 10.0 mi Calm Calm - N/A   Clear
3:15 AM 73.6 °F - 67.3 °F 81% 29.96 in 7.0 mi Calm Calm - N/A   Clear
3:35 AM 73.2 °F - 66.9 °F 81% 29.96 in 10.0 mi North 3.5 mph - N/A   Clear
3:55 AM 72.5 °F - 66.6 °F 82% 29.95 in 10.0 mi North 3.5 mph - N/A   Clear
4:15 AM 72.9 °F - 66.7 °F 81% 29.95 in 10.0 mi Calm Calm - N/A Thunderstorm Clear
4:35 AM 71.2 °F - 66.6 °F 85% 29.96 in 7.0 mi East 3.5 mph - N/A Thunderstorm Clear
4:55 AM 72.5 °F - 66.6 °F 82% 29.96 in 10.0 mi Calm Calm - N/A   Clear
5:15 AM 72.9 °F - 66.6 °F 81% 29.96 in 10.0 mi Calm Calm - N/A   Clear
5:35 AM 70.3 °F - 66.4 °F 87% 29.97 in 7.0 mi Calm Calm - N/A   Clear
5:55 AM 71.2 °F - 66.6 °F 85% 29.97 in 10.0 mi Calm Calm - N/A   Clear
6:00 AM 71.6 °F - 66.2 °F 83% 29.97 in 10.0 mi Calm Calm - N/A   Clear
6:15 AM 71.1 °F - 66.4 °F 85% 29.97 in 7.0 mi South 4.6 mph - N/A   Clear
6:35 AM 71.2 °F - 66.7 °F 86% 29.97 in 7.0 mi Calm Calm - N/A   Clear
6:50 AM 71.6 °F - 66.2 °F 83% 29.97 in 10.0 mi Calm Calm - N/A   Scattered Clouds
6:55 AM 71.2 °F - 67.1 °F 87% 29.97 in 7.0 mi Calm Calm - N/A   Clear
7:48 AM 73.4 °F - 68.0 °F 83% 29.98 in 6.0 mi North 6.9 mph - N/A   Haze
8:50 AM 80.6 °F 84.6 °F 71.6 °F 74% 29.97 in 10.0 mi NE 4.6 mph - N/A   Clear
9:45 AM 84.2 °F 88.4 °F 69.8 °F 62% 29.98 in 10.0 mi ENE 6.9 mph - N/A   Clear
10:50 AM 87.8 °F 92.6 °F 69.8 °F 55% 29.99 in 10.0 mi ENE 6.9 mph - N/A   Scattered Clouds
11:50 AM 89.6 °F 92.2 °F 66.2 °F 46% 29.99 in 10.0 mi NNE 10.4 mph - N/A   Scattered Clouds
12:50 PM 89.6 °F 92.2 °F 66.2 °F 46% 29.98 in 10.0 mi NE 9.2 mph - N/A   Scattered Clouds
1:50 PM 91.4 °F 93.2 °F 64.4 °F 41% 29.95 in 10.0 mi NE 6.9 mph - N/A   Scattered Clouds
2:55 PM 93.2 °F 94.1 °F 62.6 °F 36% 29.93 in 10.0 mi NE 6.9 mph - N/A   Scattered Clouds
3:47 PM 87.8 °F 91.4 °F 68.0 °F 52% 29.94 in 10.0 mi ESE 15.0 mph 23.0 mph N/A   Scattered Clouds
4:50 PM 86.0 °F 88.2 °F 66.2 °F 51% 29.94 in 10.0 mi SE 13.8 mph - N/A   Scattered Clouds
5:50 PM 82.4 °F 86.3 °F 69.8 °F 66% 29.93 in 10.0 mi ESE 15.0 mph 20.7 mph N/A   Scattered Clouds
6:50 PM 82.4 °F 86.3 °F 69.8 °F 66% 29.92 in 10.0 mi ESE 12.7 mph - N/A   Scattered Clouds
7:50 PM 80.6 °F 83.9 °F 69.8 °F 70% 29.94 in 10.0 mi ESE 6.9 mph - N/A   Scattered Clouds
8:50 PM 78.8 °F - 71.6 °F 78% 29.95 in 10.0 mi ESE 6.9 mph - N/A   Scattered Clouds
9:50 PM 77.0 °F - 71.6 °F 83% 29.96 in 10.0 mi ESE 5.8 mph - N/A   Clear
11:15 PM 74.5 °F - 70.7 °F 88% 29.97 in 10.0 mi ESE 4.6 mph - N/A   Clear
11:35 PM 74.8 °F - 70.7 °F 87% 29.97 in 10.0 mi ESE 4.6 mph - N/A   Clear
11:55 PM 74.3 °F - 70.7 °F 88% 29.97 in 10.0 mi East 4.6 mph - N/A   Clear